Lid_Strength_Index
8 9 8 9 9 10 10 7 10 15 13 14 12 10 8 8 8 8 8 5 5 4 5 5 6 6 7 7 7 7 7 8 8 8 8 8 7 7
8 8 8 8 8 10 10 10 11 11 11 15 14 14 9 9 8 10 9 7 6 6 6 7 7 8 8 8 8 8 9 8 8 8 8 8 8 8
7 7 8 9 8 10 10 12 13 12 14 16 15 15 13 12 10 11 10 10 9 7 7 8 8 9 9 9 9 9 9 9 9 10 10 9 9 9
8 8 8 10 9 10 10 11 12 14 14 16 17 16 14 14 14 13 12 11 12 8 8 8 9 9 10 10 10 10 10 11 11 11 10 10 10 10
8 8 9 10 11 11 10 10 10 13 15 16 18 17 17 16 16 16 15 15 13 9 8 9 10 10 10 11 11 11 11 11 11 11 11 11 11 10
9 10 11 11 12 13 13 12 12 14 15 16 17 16 15 16 15 16 16 15 14 13 11 12 11 11 11 11 11 12 12 12 12 11 11 11 12 11
10 10 10 10 10 10 11 12 13 14 15 16 17 17 16 16 15 15 15 16 15 16 15 15 15 16 15 12 13 13 13 12 12 11 12 12 12 12
10 10 9 10 10 9 9 9 11 13 14 15 16 16 16 15 14 16 15 15 16 15 16 16 16 17 16 16 13 13 13 12 12 11 12 12 12 12
8 9 10 10 10 10 9 10 11 10 11 13 15 15 16 15 14 16 15 15 16 16 16 17 17 17 16 15 13 12 13 12 11 12 12 12 12 12
10 10 11 11 11 11 11 13 13 12 13 14 14 15 15 15 14 15 15 16 17 16 15 17 17 17 16 15 13 12 12 12 11 12 12 12 12 12
12 11 11 12 10 9 12 13 13 14 12 12 12 12 12 12 13 15 16 16 17 17 16 16 17 17 17 17 16 12 12 12 11 11 11 11 12 12
13 12 10 11 10 9 11 13 14 14 13 13 13 12 12 12 12 13 14 15 16 18 16 17 17 17 18 16 16 15 14 11 11 11 11 12 12 15
13 13 12 10 9 9 10 12 13 13 12 13 14 14 14 13 13 13 14 14 16 16 15 15 16 17 18 17 16 16 16 16 17 17 15 14 13 13
13 13 12 10 10 10 11 11 11 12 14 14 15 15 15 15 15 14 14 14 13 14 14 15 18 17 19 19 19 17 18 18 17 17 16 14 13 13
13 12 12 10 10 10 11 11 11 14 14 15 15 15 15 15 16 17 16 16 16 15 15 16 16 17 20 22 21 20 19 18 17 17 17 16 16 16
13 13 12 11 11 12 12 12 14 14 14 15 15 16 16 16 17 17 17 17 18 18 17 16 17 18 22 20 20 20 19 21 18 18 17 17 16 15
14 14 13 14 14 14 14 14 15 15 15 16 16 17 16 17 17 17 17 18 20 19 20 19 18 18 19 20 23 19 19 19 18 18 18 18 16 15
14 15 15 15 15 15 16 16 16 15 16 16 16 16 17 17 18 18 18 19 20 20 20 21 21 22 21 19 16 19 19 19 18 17 17 18 18 16
15 14 15 15 15 16 16 16 16 16 16 16 16 17 17 17 17 18 18 19 19 20 20 21 22 23 27 24 19 14 19 19 18 18 17 18 18 16
14 15 16 15 16 16 16 16 16 17 16 17 17 17 17 17 18 18 18 19 19 20 21 21 20 21 23 23 23 18 13 17 18 18 19 18 16 13
15 16 16 16 16 16 16 16 16 16 17 17 17 17 17 17 18 18 18 16 18 22 21 20 18 15 23 21 22 21 17 13 14 18 20 19 18 16
14 15 15 15 15 15 16 16 16 16 17 16 17 16 17 17 17 18 18 18 17 19 18 18 19 19 19 19 19 21 21 18 14 12 11 12 17 18
15 15 15 15 15 15 15 16 16 15 15 16 16 16 16 17 17 17 17 17 18 18 18 21 21 20 18 18 17 17 21 21 20 19 17 12 11 10